Overview Statistics Trail Chart Weather Telemetry Raw packets
 

This is the latest recevied weather packets stored in our database for station/object MeshWX-3. If no packets are shown the sender has not sent any weather packets the latest 10 day(s).

<< 1 2 3 4 >>
Time Temp. Humidity Pressure Rain* Wind** Luminosity Snow
1788574571 20° C 47% 977 hPa - - - -
1788574500 20° C 46% 976.9 hPa - - - -
1788572710 20° C 46% 976.9 hPa - - - -
1788572640 20.56° C 44% 976.9 hPa - - - -
1788571582 20.56° C 44% 976.9 hPa - - - -
1788570790 20.56° C 44% 976.9 hPa - - - -
1788570720 20.56° C 43% 977 hPa - - - -
1788568810 20.56° C 43% 977 hPa - - - -
1788568740 21.67° C 42% 977.1 hPa - - - -
1788566770 21.67° C 42% 977.1 hPa - - - -
1788566700 21.67° C 41% 977 hPa - - - -
1788564670 21.67° C 41% 977 hPa - - - -
1788564599 22.78° C 40% 977 hPa - - - -
1788562737 22.78° C 40% 977 hPa - - - -
1788562690 22.78° C 40% 977 hPa - - - -
1788562619 22.78° C 39% 976.7 hPa - - - -
1788560649 22.78° C 39% 976.7 hPa - - - -
1788560579 23.33° C 38% 977.5 hPa - - - -
1788558549 23.33° C 38% 977.5 hPa - - - -
1788558479 23.89° C 38% 977.5 hPa - - - -
1788556509 23.89° C 38% 977.5 hPa - - - -
1788556439 23.89° C 37% 977.3 hPa - - - -
1788554529 23.89° C 37% 977.3 hPa - - - -
1788554459 23.33° C 38% 977.1 hPa - - - -
1788552549 23.33° C 38% 977.1 hPa - - - -

* Rain since midnight (hover to see other rain measurements)
** Current wind speed in m/s (hover to see current wind gust speed)